Time,TemperatureF,DewpointF,PressureIn,WindDirection,WindDirectionDegrees,WindSpeedMPH,WindSpeedGustMPH,Humidity,HourlyPrecipIn,Conditions,Clouds,dailyrainin,SolarRadiationWatts/m^2,SoftwareType,DateUTC
2014-10-23 00:03:00,47.3,41.8,30.12,NE,36,0.0,0.0,81,0.00,,---,0.00,0.00,VWS V14.01,2014-10-23 04:03:00,
2014-10-23 00:08:00,47.2,41.7,30.12,NE,36,0.0,0.0,81,0.00,,---,0.00,0.00,VWS V14.01,2014-10-23 04:08:00,
2014-10-23 00:13:00,47.1,41.6,30.12,NE,36,0.0,0.0,81,0.00,,---,0.00,0.00,VWS V14.01,2014-10-23 04:13:00,
2014-10-23 00:18:00,47.1,41.9,30.12,NE,36,0.0,0.0,82,0.00,,---,0.00,0.00,VWS V14.01,2014-10-23 04:18:00,
2014-10-23 00:23:00,47.0,41.8,30.12,NE,36,0.0,0.0,82,0.00,,---,0.00,0.00,VWS V14.01,2014-10-23 04:23:00,
2014-10-23 00:28:00,46.7,41.8,30.12,NE,36,0.0,0.0,83,0.00,,---,0.00,0.00,VWS V14.01,2014-10-23 04:28:00,
2014-10-23 00:33:00,46.7,41.8,30.12,NE,36,0.0,0.0,83,0.00,,---,0.00,0.00,VWS V14.01,2014-10-23 04:33:00,
2014-10-23 00:38:00,46.4,41.8,30.12,NE,36,0.0,0.0,84,0.00,,---,0.00,0.00,VWS V14.01,2014-10-23 04:38:00,
2014-10-23 00:43:00,46.3,41.7,30.12,NE,36,0.0,0.0,84,0.00,,---,0.00,0.00,VWS V14.01,2014-10-23 04:43:00,
2014-10-23 00:48:00,46.5,41.9,30.12,NE,36,0.0,0.0,84,0.00,,---,0.00,0.00,VWS V14.01,2014-10-23 04:48:00,
2014-10-23 00:53:00,46.7,41.8,30.12,NE,36,0.0,0.0,83,0.00,,---,0.00,0.00,VWS V14.01,2014-10-23 04:53:00,
2014-10-23 00:58:00,46.8,41.6,30.12,NE,36,0.0,0.0,82,0.00,,---,0.00,0.00,VWS V14.01,2014-10-23 04:58:00,
2014-10-23 01:03:00,46.9,41.7,30.12,NE,36,0.0,0.0,82,0.00,,---,0.00,0.00,VWS V14.01,2014-10-23 05:03:00,
2014-10-23 01:08:00,46.9,41.7,30.12,NE,36,1.0,3.0,82,0.00,,---,0.00,0.00,VWS V14.01,2014-10-23 05:08:00,
2014-10-23 01:13:00,46.9,41.4,30.12,NE,36,0.0,2.0,81,0.00,,---,0.00,0.00,VWS V14.01,2014-10-23 05:13:00,
2014-10-23 01:18:00,46.7,41.5,30.12,NE,36,0.0,0.0,82,0.00,,---,0.00,0.00,VWS V14.01,2014-10-23 05:18:00,
2014-10-23 01:23:00,46.5,41.6,30.12,NE,36,0.0,0.0,83,0.00,,---,0.00,0.00,VWS V14.01,2014-10-23 05:23:00,
2014-10-23 01:28:00,46.3,41.4,30.12,NE,36,0.0,0.0,83,0.00,,---,0.00,0.00,VWS V14.01,2014-10-23 05:28:00,
2014-10-23 01:33:00,46.2,41.6,30.12,NE,36,0.0,0.0,84,0.00,,---,0.00,0.00,VWS V14.01,2014-10-23 05:33:00,
2014-10-23 01:38:00,46.0,41.4,30.12,NE,36,0.0,0.0,84,0.00,,---,0.00,0.00,VWS V14.01,2014-10-23 05:38:00,
2014-10-23 01:43:00,45.9,41.3,30.12,NE,36,0.0,0.0,84,0.00,,---,0.00,0.00,VWS V14.01,2014-10-23 05:43:00,
2014-10-23 01:48:00,45.9,41.3,30.12,NE,36,0.0,0.0,84,0.00,,---,0.00,0.00,VWS V14.01,2014-10-23 05:48:00,
2014-10-23 01:53:00,45.9,41.7,30.12,NE,36,0.0,0.0,85,0.00,,---,0.00,0.00,VWS V14.01,2014-10-23 05:53:00,
2014-10-23 01:58:00,45.8,41.2,30.12,NE,36,0.0,0.0,84,0.00,,---,0.00,0.00,VWS V14.01,2014-10-23 05:58:00,
2014-10-23 02:03:00,45.6,41.4,30.12,NE,36,0.0,0.0,85,0.00,,---,0.00,0.00,VWS V14.01,2014-10-23 06:03:00,
2014-10-23 02:08:00,45.6,41.4,30.12,NE,36,0.0,0.0,85,0.00,,---,0.00,0.00,VWS V14.01,2014-10-23 06:08:00,
2014-10-23 02:13:00,45.5,41.3,30.11,NE,36,0.0,0.0,85,0.00,,---,0.00,0.00,VWS V14.01,2014-10-23 06:13:00,
2014-10-23 02:18:00,45.5,41.3,30.12,NE,36,0.0,3.0,85,0.00,,---,0.00,0.00,VWS V14.01,2014-10-23 06:18:00,
2014-10-23 02:23:00,45.5,41.3,30.11,NE,36,0.0,0.0,85,0.00,,---,0.00,0.00,VWS V14.01,2014-10-23 06:23:00,
2014-10-23 02:28:00,45.3,41.1,30.11,NE,36,0.0,0.0,85,0.00,,---,0.00,0.00,VWS V14.01,2014-10-23 06:28:00,
2014-10-23 02:33:00,45.3,41.4,30.12,NE,36,0.0,0.0,86,0.00,,---,0.00,0.00,VWS V14.01,2014-10-23 06:33:00,
2014-10-23 02:38:00,45.2,41.3,30.12,NE,36,0.0,0.0,86,0.00,,---,0.00,0.00,VWS V14.01,2014-10-23 06:38:00,
2014-10-23 02:43:00,45.1,41.2,30.12,NE,36,0.0,0.0,86,0.00,,---,0.00,0.00,VWS V14.01,2014-10-23 06:43:00,
2014-10-23 02:48:00,45.2,41.3,30.12,NE,36,0.0,0.0,86,0.00,,---,0.00,0.00,VWS V14.01,2014-10-23 06:48:00,
2014-10-23 02:53:00,45.4,41.5,30.12,NE,36,0.0,0.0,86,0.00,,---,0.00,0.00,VWS V14.01,2014-10-23 06:53:00,
2014-10-23 02:58:00,45.5,41.6,30.12,NE,36,0.0,0.0,86,0.00,,---,0.00,0.00,VWS V14.01,2014-10-23 06:58:00,
2014-10-23 03:03:00,45.5,41.6,30.12,NE,36,0.0,0.0,86,0.00,,---,0.00,0.00,VWS V14.01,2014-10-23 07:03:00,
2014-10-23 03:08:00,45.5,41.6,30.12,NE,36,0.0,0.0,86,0.00,,---,0.00,0.00,VWS V14.01,2014-10-23 07:08:00,
2014-10-23 03:13:00,45.4,41.5,30.12,NE,36,0.0,0.0,86,0.00,,---,0.00,0.00,VWS V14.01,2014-10-23 07:13:00,
2014-10-23 03:18:00,45.4,41.5,30.13,NE,36,0.0,0.0,86,0.00,,---,0.00,0.00,VWS V14.01,2014-10-23 07:18:00,
2014-10-23 03:23:00,45.6,41.4,30.12,NE,36,0.0,0.0,85,0.00,,---,0.00,0.00,VWS V14.01,2014-10-23 07:23:00,
2014-10-23 03:28:00,45.6,41.4,30.13,NE,36,0.0,0.0,85,0.00,,---,0.00,0.00,VWS V14.01,2014-10-23 07:28:00,
2014-10-23 03:33:00,45.6,41.4,30.13,NE,36,3.0,3.0,85,0.00,,---,0.00,0.00,VWS V14.01,2014-10-23 07:33:00,
2014-10-23 03:38:00,45.6,41.4,30.13,NE,36,0.0,0.0,85,0.00,,---,0.00,0.00,VWS V14.01,2014-10-23 07:38:00,
2014-10-23 03:43:00,45.6,41.4,30.13,NE,36,0.0,0.0,85,0.00,,---,0.00,0.00,VWS V14.01,2014-10-23 07:43:00,
2014-10-23 03:48:00,45.6,41.4,30.12,NE,36,0.0,0.0,85,0.00,,---,0.00,0.00,VWS V14.01,2014-10-23 07:48:00,
2014-10-23 03:53:00,45.5,41.3,30.12,NE,36,0.0,0.0,85,0.00,,---,0.00,0.00,VWS V14.01,2014-10-23 07:53:00,
2014-10-23 03:58:00,45.4,41.2,30.12,NE,36,0.0,0.0,85,0.00,,---,0.00,0.00,VWS V14.01,2014-10-23 07:58:00,
2014-10-23 04:03:00,45.4,41.5,30.12,NE,36,0.0,0.0,86,0.00,,---,0.00,0.00,VWS V14.01,2014-10-23 08:03:00,
2014-10-23 04:08:00,45.3,41.4,30.12,NE,36,0.0,0.0,86,0.00,,---,0.00,0.00,VWS V14.01,2014-10-23 08:08:00,
2014-10-23 04:13:00,45.3,41.4,30.12,NE,36,0.0,0.0,86,0.00,,---,0.00,0.00,VWS V14.01,2014-10-23 08:13:00,
2014-10-23 04:18:00,45.3,41.4,30.12,NE,36,0.0,0.0,86,0.00,,---,0.00,0.00,VWS V14.01,2014-10-23 08:18:00,
2014-10-23 04:23:00,45.2,41.3,30.12,NE,36,0.0,0.0,86,0.00,,---,0.00,0.00,VWS V14.01,2014-10-23 08:23:00,
2014-10-23 04:28:00,45.3,41.4,30.12,NE,36,0.0,0.0,86,0.00,,---,0.00,0.00,VWS V14.01,2014-10-23 08:28:00,
2014-10-23 04:33:00,45.2,41.3,30.12,NE,36,0.0,0.0,86,0.00,,---,0.00,0.00,VWS V14.01,2014-10-23 08:33:00,
2014-10-23 04:38:00,45.0,41.4,30.11,NE,36,0.0,0.0,87,0.00,,---,0.00,0.00,VWS V14.01,2014-10-23 08:38:00,
2014-10-23 04:43:00,45.0,41.4,30.11,NE,36,0.0,0.0,87,0.00,,---,0.00,0.00,VWS V14.01,2014-10-23 08:43:00,
2014-10-23 04:48:00,44.9,41.3,30.11,NE,36,0.0,0.0,87,0.00,,---,0.00,0.00,VWS V14.01,2014-10-23 08:48:00,
2014-10-23 04:53:00,44.7,41.4,30.11,NE,36,0.0,0.0,88,0.00,,---,0.00,0.00,VWS V14.01,2014-10-23 08:53:00,
2014-10-23 04:58:00,44.6,41.3,30.11,NE,36,0.0,0.0,88,0.00,,---,0.00,0.00,VWS V14.01,2014-10-23 08:58:00,
2014-10-23 05:03:00,44.5,41.2,30.11,NE,36,0.0,0.0,88,0.00,,---,0.00,0.00,VWS V14.01,2014-10-23 09:03:00,
2014-10-23 05:08:00,44.3,41.0,30.11,NE,36,0.0,0.0,88,0.00,,---,0.00,0.00,VWS V14.01,2014-10-23 09:08:00,
2014-10-23 05:13:00,44.2,40.9,30.11,NE,36,0.0,0.0,88,0.00,,---,0.00,0.00,VWS V14.01,2014-10-23 09:13:00,
2014-10-23 05:18:00,43.9,40.9,30.11,NE,36,0.0,0.0,89,0.00,,---,0.00,0.00,VWS V14.01,2014-10-23 09:18:00,
2014-10-23 05:23:00,43.9,40.9,30.11,NE,36,0.0,0.0,89,0.00,,---,0.00,0.00,VWS V14.01,2014-10-23 09:23:00,
2014-10-23 05:28:00,43.8,40.8,30.11,NE,36,0.0,0.0,89,0.00,,---,0.00,0.00,VWS V14.01,2014-10-23 09:28:00,
2014-10-23 05:33:00,43.6,40.6,30.11,NE,36,0.0,0.0,89,0.00,,---,0.00,0.00,VWS V14.01,2014-10-23 09:33:00,
2014-10-23 05:38:00,43.4,40.4,30.11,NE,36,0.0,0.0,89,0.00,,---,0.00,0.00,VWS V14.01,2014-10-23 09:38:00,
2014-10-23 05:43:00,42.8,39.8,30.11,NE,36,0.0,0.0,89,0.00,,---,0.00,0.00,VWS V14.01,2014-10-23 09:43:00,
2014-10-23 05:48:00,42.5,39.8,30.11,NE,36,0.0,0.0,90,0.00,,---,0.00,0.00,VWS V14.01,2014-10-23 09:48:00,
2014-10-23 05:53:00,42.2,39.5,30.11,NE,36,0.0,0.0,90,0.00,,---,0.00,0.00,VWS V14.01,2014-10-23 09:53:00,
2014-10-23 05:58:00,42.0,39.6,30.11,NE,36,0.0,0.0,91,0.00,,---,0.00,0.00,VWS V14.01,2014-10-23 09:58:00,
2014-10-23 06:03:00,41.8,39.4,30.12,NE,36,0.0,0.0,91,0.00,,---,0.00,0.00,VWS V14.01,2014-10-23 10:03:00,
2014-10-23 06:08:00,41.5,39.1,30.11,NE,36,0.0,0.0,91,0.00,,---,0.00,0.00,VWS V14.01,2014-10-23 10:08:00,
2014-10-23 06:13:00,41.6,39.5,30.11,NE,36,0.0,0.0,92,0.00,,---,0.00,0.00,VWS V14.01,2014-10-23 10:13:00,
2014-10-23 06:18:00,41.8,39.7,30.11,NE,36,0.0,0.0,92,0.00,,---,0.00,0.00,VWS V14.01,2014-10-23 10:18:00,
2014-10-23 06:23:00,41.8,39.7,30.11,NE,36,0.0,0.0,92,0.00,,---,0.00,0.00,VWS V14.01,2014-10-23 10:23:00,
2014-10-23 06:28:00,41.2,38.8,30.11,NE,36,0.0,0.0,91,0.00,,---,0.00,0.00,VWS V14.01,2014-10-23 10:28:00,
2014-10-23 06:33:00,40.7,38.3,30.11,NE,36,0.0,0.0,91,0.00,,---,0.00,0.00,VWS V14.01,2014-10-23 10:33:00,
2014-10-23 06:38:00,40.5,38.6,30.11,NE,36,0.0,0.0,93,0.00,,---,0.00,0.00,VWS V14.01,2014-10-23 10:38:00,
2014-10-23 06:43:00,40.5,38.6,30.11,NE,36,0.0,0.0,93,0.00,,---,0.00,0.00,VWS V14.01,2014-10-23 10:43:00,
2014-10-23 06:48:00,40.6,38.7,30.11,NE,36,0.0,0.0,93,0.00,,---,0.00,0.00,VWS V14.01,2014-10-23 10:48:00,
2014-10-23 06:53:00,40.7,38.8,30.11,NE,36,0.0,0.0,93,0.00,,---,0.00,0.00,VWS V14.01,2014-10-23 10:53:00,
2014-10-23 06:58:00,40.9,39.0,30.11,NE,36,0.0,0.0,93,0.00,,---,0.00,0.00,VWS V14.01,2014-10-23 10:58:00,
2014-10-23 07:03:00,40.9,39.0,30.12,NE,36,0.0,0.0,93,0.00,,---,0.00,0.00,VWS V14.01,2014-10-23 11:03:00,
2014-10-23 07:08:00,40.7,38.6,30.12,NE,36,0.0,0.0,92,0.00,,---,0.00,0.00,VWS V14.01,2014-10-23 11:08:00,
2014-10-23 07:13:00,40.4,38.3,30.12,NE,36,0.0,0.0,92,0.00,,---,0.00,0.00,VWS V14.01,2014-10-23 11:13:00,
2014-10-23 07:18:00,40.2,38.1,30.12,NE,36,0.0,0.0,92,0.00,,---,0.00,0.00,VWS V14.01,2014-10-23 11:18:00,
2014-10-23 07:23:00,39.9,37.8,30.12,NE,36,0.0,0.0,92,0.00,,---,0.00,0.00,VWS V14.01,2014-10-23 11:23:00,
2014-10-23 07:28:00,39.8,38.0,30.12,NE,36,0.0,0.0,93,0.00,,---,0.00,0.00,VWS V14.01,2014-10-23 11:28:00,
2014-10-23 07:33:00,39.9,38.0,30.12,NE,36,0.0,0.0,93,0.00,,---,0.00,0.00,VWS V14.01,2014-10-23 11:33:00,
2014-10-23 07:38:00,40.0,38.1,30.12,NE,36,0.0,0.0,93,0.00,,---,0.00,0.00,VWS V14.01,2014-10-23 11:38:00,
2014-10-23 07:43:00,39.9,38.0,30.12,NE,36,0.0,0.0,93,0.00,,---,0.00,0.00,VWS V14.01,2014-10-23 11:43:00,
2014-10-23 07:49:00,40.1,38.2,30.11,NE,36,0.0,0.0,93,0.00,,---,0.00,0.00,VWS V14.01,2014-10-23 11:49:00,
2014-10-23 07:54:00,40.2,38.3,30.12,NE,36,0.0,0.0,93,0.00,,---,0.00,0.00,VWS V14.01,2014-10-23 11:54:00,
2014-10-23 07:59:00,40.4,38.5,30.11,NE,36,0.0,0.0,93,0.00,,---,0.00,5.00,VWS V14.01,2014-10-23 11:59:00,
2014-10-23 08:04:00,40.5,38.6,30.11,NE,36,0.0,0.0,93,0.00,,---,0.00,9.00,VWS V14.01,2014-10-23 12:04:00,
2014-10-23 08:09:00,40.4,38.3,30.11,NE,36,0.0,0.0,92,0.00,,---,0.00,12.00,VWS V14.01,2014-10-23 12:09:00,
2014-10-23 08:14:00,40.3,38.2,30.12,NE,36,0.0,0.0,92,0.00,,---,0.00,19.00,VWS V14.01,2014-10-23 12:14:00,
2014-10-23 08:19:00,40.1,38.0,30.12,NE,36,0.0,0.0,92,0.00,,---,0.00,28.00,VWS V14.01,2014-10-23 12:19:00,
2014-10-23 08:24:00,40.3,38.4,30.12,NE,36,0.0,0.0,93,0.00,,---,0.00,39.00,VWS V14.01,2014-10-23 12:24:00,
2014-10-23 08:29:00,40.5,38.6,30.12,NE,36,0.0,0.0,93,0.00,,---,0.00,49.00,VWS V14.01,2014-10-23 12:29:00,
2014-10-23 08:34:00,40.7,38.8,30.12,NE,36,0.0,0.0,93,0.00,,---,0.00,62.00,VWS V14.01,2014-10-23 12:34:00,
2014-10-23 08:39:00,41.0,38.9,30.12,NE,36,0.0,0.0,92,0.00,,---,0.00,77.00,VWS V14.01,2014-10-23 12:39:00,
2014-10-23 08:44:00,41.0,38.9,30.12,NE,36,0.0,0.0,92,0.00,,---,0.00,93.00,VWS V14.01,2014-10-23 12:44:00,
2014-10-23 08:49:00,41.2,39.1,30.12,NE,36,0.0,0.0,92,0.00,,---,0.00,107.00,VWS V14.01,2014-10-23 12:49:00,
2014-10-23 08:54:00,41.5,39.3,30.12,NE,36,0.0,0.0,92,0.00,,---,0.00,123.00,VWS V14.01,2014-10-23 12:54:00,
2014-10-23 08:59:00,41.8,39.7,30.13,NE,36,0.0,0.0,92,0.00,,---,0.00,139.00,VWS V14.01,2014-10-23 12:59:00,
2014-10-23 09:04:00,41.8,39.4,30.12,NE,36,0.0,0.0,91,0.00,,---,0.00,151.00,VWS V14.01,2014-10-23 13:04:00,
2014-10-23 09:09:00,42.0,39.6,30.12,NE,36,0.0,0.0,91,0.00,,---,0.00,169.00,VWS V14.01,2014-10-23 13:09:00,
2014-10-23 09:14:00,42.4,40.0,30.12,NE,36,0.0,0.0,91,0.00,,---,0.00,185.00,VWS V14.01,2014-10-23 13:14:00,
2014-10-23 09:19:00,42.8,40.4,30.12,NE,36,0.0,0.0,91,0.00,,---,0.00,199.00,VWS V14.01,2014-10-23 13:19:00,
2014-10-23 09:24:00,43.0,40.3,30.12,NE,36,0.0,0.0,90,0.00,,---,0.00,214.00,VWS V14.01,2014-10-23 13:24:00,
2014-10-23 09:29:00,43.4,40.7,30.12,NE,36,0.0,0.0,90,0.00,,---,0.00,227.00,VWS V14.01,2014-10-23 13:29:00,
2014-10-23 09:34:00,43.7,40.4,30.12,NE,36,0.0,0.0,88,0.00,,---,0.00,244.00,VWS V14.01,2014-10-23 13:34:00,
2014-10-23 09:39:00,44.0,40.7,30.12,NE,36,0.0,0.0,88,0.00,,---,0.00,264.00,VWS V14.01,2014-10-23 13:39:00,
2014-10-23 09:44:00,44.1,40.8,30.12,NE,36,0.0,0.0,88,0.00,,---,0.00,279.00,VWS V14.01,2014-10-23 13:44:00,
2014-10-23 09:49:00,44.5,40.9,30.12,NE,36,1.0,4.0,87,0.00,,---,0.00,297.00,VWS V14.01,2014-10-23 13:49:00,
2014-10-23 09:54:00,44.5,40.9,30.12,NE,36,3.0,3.0,87,0.00,,---,0.00,316.00,VWS V14.01,2014-10-23 13:54:00,
2014-10-23 09:59:00,44.8,40.9,30.12,NE,36,0.0,0.0,86,0.00,,---,0.00,329.00,VWS V14.01,2014-10-23 13:59:00,
2014-10-23 10:04:00,45.1,41.2,30.12,NE,36,0.0,0.0,86,0.00,,---,0.00,345.00,VWS V14.01,2014-10-23 14:04:00,
2014-10-23 10:09:00,45.3,41.1,30.13,NE,36,0.0,0.0,85,0.00,,---,0.00,359.00,VWS V14.01,2014-10-23 14:09:00,
2014-10-23 10:14:00,45.7,41.8,30.13,NE,36,0.0,0.0,86,0.00,,---,0.00,373.00,VWS V14.01,2014-10-23 14:14:00,
2014-10-23 10:19:00,46.2,42.0,30.13,NE,36,0.0,0.0,85,0.00,,---,0.00,387.00,VWS V14.01,2014-10-23 14:19:00,
2014-10-23 10:24:00,46.4,41.8,30.13,NE,36,2.0,2.0,84,0.00,,---,0.00,399.00,VWS V14.01,2014-10-23 14:24:00,
2014-10-23 10:29:00,46.9,41.7,30.13,NE,36,2.0,4.0,82,0.00,,---,0.00,417.00,VWS V14.01,2014-10-23 14:29:00,
2014-10-23 10:34:00,47.5,42.0,30.13,NE,36,0.0,0.0,81,0.00,,---,0.00,429.00,VWS V14.01,2014-10-23 14:34:00,
2014-10-23 10:39:00,47.9,42.0,30.13,NE,36,0.0,0.0,80,0.00,,---,0.00,446.00,VWS V14.01,2014-10-23 14:39:00,
2014-10-23 10:44:00,48.6,42.1,30.13,NE,36,0.0,0.0,78,0.00,,---,0.00,452.00,VWS V14.01,2014-10-23 14:44:00,
2014-10-23 10:49:00,48.9,42.3,30.13,NE,36,0.0,0.0,78,0.00,,---,0.00,464.00,VWS V14.01,2014-10-23 14:49:00,
2014-10-23 10:54:00,49.1,42.2,30.13,NE,36,0.0,0.0,77,0.00,,---,0.00,482.00,VWS V14.01,2014-10-23 14:54:00,
2014-10-23 10:59:00,49.9,43.3,30.13,NE,36,0.0,0.0,78,0.00,,---,0.00,492.00,VWS V14.01,2014-10-23 14:59:00,
2014-10-23 11:04:00,50.7,43.1,30.13,NE,37,1.0,1.0,75,0.00,,---,0.00,504.00,VWS V14.01,2014-10-23 15:04:00,
2014-10-23 11:09:00,51.0,43.4,30.13,NE,37,0.0,0.0,75,0.00,,---,0.00,510.00,VWS V14.01,2014-10-23 15:09:00,
2014-10-23 11:14:00,51.1,42.4,30.13,NE,38,0.0,0.0,72,0.00,,---,0.00,524.00,VWS V14.01,2014-10-23 15:14:00,
2014-10-23 11:19:00,51.2,42.5,30.12,NE,38,1.0,2.0,72,0.00,,---,0.00,543.00,VWS V14.01,2014-10-23 15:19:00,
2014-10-23 11:24:00,51.2,42.5,30.12,NE,38,0.0,0.0,72,0.00,,---,0.00,548.00,VWS V14.01,2014-10-23 15:24:00,
2014-10-23 11:29:00,51.5,42.4,30.12,NE,38,0.0,0.0,71,0.00,,---,0.00,559.00,VWS V14.01,2014-10-23 15:29:00,
2014-10-23 11:34:00,52.0,42.9,30.12,NE,38,0.0,0.0,71,0.00,,---,0.00,570.00,VWS V14.01,2014-10-23 15:34:00,
2014-10-23 11:39:00,52.7,42.5,30.12,NE,38,0.0,0.0,68,0.00,,---,0.00,587.00,VWS V14.01,2014-10-23 15:39:00,
2014-10-23 11:44:00,53.5,43.2,30.11,NE,38,0.0,0.0,68,0.00,,---,0.00,585.00,VWS V14.01,2014-10-23 15:44:00,
2014-10-23 11:49:00,53.4,42.3,30.12,NE,37,1.0,2.0,66,0.00,,---,0.00,596.00,VWS V14.01,2014-10-23 15:49:00,
2014-10-23 11:54:00,53.2,41.8,30.11,NE,37,0.0,0.0,65,0.00,,---,0.00,599.00,VWS V14.01,2014-10-23 15:54:00,
2014-10-23 11:59:00,53.5,42.4,30.11,NE,37,0.0,0.0,66,0.00,,---,0.00,605.00,VWS V14.01,2014-10-23 15:59:00,
2014-10-23 12:04:00,54.1,42.2,30.11,NE,36,0.0,3.0,64,0.00,,---,0.00,621.00,VWS V14.01,2014-10-23 16:04:00,
2014-10-23 12:09:00,53.6,42.5,30.12,NE,37,0.0,0.0,66,0.00,,---,0.00,629.00,VWS V14.01,2014-10-23 16:09:00,
2014-10-23 12:14:00,53.6,42.1,30.11,NE,37,0.0,0.0,65,0.00,,---,0.00,633.00,VWS V14.01,2014-10-23 16:14:00,
2014-10-23 12:19:00,54.6,43.1,30.11,NE,42,0.0,0.0,65,0.00,,---,0.00,636.00,VWS V14.01,2014-10-23 16:19:00,
2014-10-23 12:24:00,55.5,42.7,30.11,NE,42,0.0,0.0,62,0.00,,---,0.00,647.00,VWS V14.01,2014-10-23 16:24:00,
2014-10-23 12:29:00,55.6,43.2,30.10,NE,42,0.0,0.0,63,0.00,,---,0.00,654.00,VWS V14.01,2014-10-23 16:29:00,
2014-10-23 12:34:00,54.9,42.6,30.10,NE,42,0.0,0.0,63,0.00,,---,0.00,652.00,VWS V14.01,2014-10-23 16:34:00,
2014-10-23 12:39:00,55.9,43.1,30.10,NE,42,0.0,3.0,62,0.00,,---,0.00,654.00,VWS V14.01,2014-10-23 16:39:00,
2014-10-23 12:44:00,55.9,42.7,30.10,NNE,33,4.0,4.0,61,0.00,,---,0.00,671.00,VWS V14.01,2014-10-23 16:44:00,
2014-10-23 12:49:00,55.9,43.1,30.10,NNE,32,0.0,2.0,62,0.00,,---,0.00,668.00,VWS V14.01,2014-10-23 16:49:00,
2014-10-23 12:54:00,56.0,42.8,30.09,NNE,32,0.0,0.0,61,0.00,,---,0.00,675.00,VWS V14.01,2014-10-23 16:54:00,
2014-10-23 12:59:00,56.6,42.9,30.09,NNE,32,0.0,0.0,60,0.00,,---,0.00,679.00,VWS V14.01,2014-10-23 16:59:00,
2014-10-23 13:04:00,56.7,43.0,30.09,NNE,33,0.0,3.0,60,0.00,,---,0.00,680.00,VWS V14.01,2014-10-23 17:04:00,
2014-10-23 13:09:00,57.0,43.3,30.09,NNE,31,1.0,4.0,60,0.00,,---,0.00,677.00,VWS V14.01,2014-10-23 17:09:00,
2014-10-23 13:14:00,57.0,43.3,30.09,NNE,30,2.0,4.0,60,0.00,,---,0.00,679.00,VWS V14.01,2014-10-23 17:14:00,
2014-10-23 13:19:00,56.5,42.8,30.09,NNE,30,0.0,0.0,60,0.00,,---,0.00,680.00,VWS V14.01,2014-10-23 17:19:00,
2014-10-23 13:24:00,56.8,42.6,30.09,NNE,29,0.0,5.0,59,0.00,,---,0.00,680.00,VWS V14.01,2014-10-23 17:24:00,
2014-10-23 13:29:00,57.2,43.0,30.09,NNE,29,0.0,0.0,59,0.00,,---,0.00,696.00,VWS V14.01,2014-10-23 17:29:00,
2014-10-23 13:35:00,57.3,42.7,30.08,NNE,28,0.0,0.0,58,0.00,,---,0.00,682.00,VWS V14.01,2014-10-23 17:35:00,
2014-10-23 13:40:00,57.3,43.1,30.08,NNE,28,2.0,4.0,59,0.00,,---,0.00,675.00,VWS V14.01,2014-10-23 17:40:00,
2014-10-23 13:45:00,57.4,43.2,30.07,NNE,28,0.0,0.0,59,0.00,,---,0.00,673.00,VWS V14.01,2014-10-23 17:45:00,
2014-10-23 13:50:00,57.8,43.1,30.07,NNE,28,0.0,0.0,58,0.00,,---,0.00,668.00,VWS V14.01,2014-10-23 17:50:00,
2014-10-23 13:55:00,58.1,43.4,30.07,NNE,28,0.0,0.0,58,0.00,,---,0.00,659.00,VWS V14.01,2014-10-23 17:55:00,
2014-10-23 14:00:00,57.5,42.8,30.06,NNE,28,2.0,4.0,58,0.00,,---,0.00,659.00,VWS V14.01,2014-10-23 18:00:00,
2014-10-23 14:05:00,57.1,42.5,30.06,NNE,28,0.0,0.0,58,0.00,,---,0.00,659.00,VWS V14.01,2014-10-23 18:05:00,
2014-10-23 14:10:00,57.4,42.8,30.06,NNE,28,4.0,4.0,58,0.00,,---,0.00,656.00,VWS V14.01,2014-10-23 18:10:00,
2014-10-23 14:15:00,57.3,43.1,30.05,NNE,28,2.0,4.0,59,0.00,,---,0.00,656.00,VWS V14.01,2014-10-23 18:15:00,
2014-10-23 14:20:00,57.6,43.4,30.05,NNE,28,0.0,3.0,59,0.00,,---,0.00,661.00,VWS V14.01,2014-10-23 18:20:00,
2014-10-23 14:25:00,57.8,42.7,30.05,NNE,28,0.0,0.0,57,0.00,,---,0.00,659.00,VWS V14.01,2014-10-23 18:25:00,
2014-10-23 14:30:00,58.1,43.0,30.04,NNE,28,0.0,1.0,57,0.00,,---,0.00,654.00,VWS V14.01,2014-10-23 18:30:00,
2014-10-23 14:35:00,58.7,42.6,30.04,NNE,28,0.0,0.0,55,0.00,,---,0.00,647.00,VWS V14.01,2014-10-23 18:35:00,
2014-10-23 14:40:00,59.2,43.5,30.04,NNE,28,0.0,2.0,56,0.00,,---,0.00,638.00,VWS V14.01,2014-10-23 18:40:00,
2014-10-23 14:45:00,59.1,42.5,30.04,NNE,26,0.0,0.0,54,0.00,,---,0.00,610.00,VWS V14.01,2014-10-23 18:45:00,
2014-10-23 14:50:00,59.0,42.9,30.03,NNE,24,0.0,0.0,55,0.00,,---,0.00,633.00,VWS V14.01,2014-10-23 18:50:00,
2014-10-23 14:55:00,59.4,42.8,30.03,NNE,25,0.0,0.0,54,0.00,,---,0.00,378.00,VWS V14.01,2014-10-23 18:55:00,
2014-10-23 15:00:00,59.0,42.9,30.03,NNE,24,0.0,0.0,55,0.00,,---,0.00,608.00,VWS V14.01,2014-10-23 19:00:00,
2014-10-23 15:05:00,59.4,43.2,30.02,NNE,25,0.0,0.0,55,0.00,,---,0.00,670.00,VWS V14.01,2014-10-23 19:05:00,
2014-10-23 15:10:00,59.9,43.2,30.02,NNE,24,1.0,1.0,54,0.00,,---,0.00,661.00,VWS V14.01,2014-10-23 19:10:00,
2014-10-23 15:15:00,60.5,42.3,30.02,NNE,24,0.0,3.0,51,0.00,,---,0.00,633.00,VWS V14.01,2014-10-23 19:15:00,
2014-10-23 15:20:00,59.9,42.7,30.02,NNE,24,0.0,0.0,53,0.00,,---,0.00,622.00,VWS V14.01,2014-10-23 19:20:00,
2014-10-23 15:25:00,60.2,43.0,30.02,NNE,24,0.0,0.0,53,0.00,,---,0.00,540.00,VWS V14.01,2014-10-23 19:25:00,
2014-10-23 15:30:00,60.3,43.1,30.02,NNE,25,0.0,0.0,53,0.00,,---,0.00,538.00,VWS V14.01,2014-10-23 19:30:00,
2014-10-23 15:35:00,59.9,42.2,30.02,NNE,24,0.0,0.0,52,0.00,,---,0.00,559.00,VWS V14.01,2014-10-23 19:35:00,
2014-10-23 15:40:00,60.0,42.8,30.01,NNE,25,0.0,0.0,53,0.00,,---,0.00,522.00,VWS V14.01,2014-10-23 19:40:00,
2014-10-23 15:45:00,59.3,42.7,30.02,NNE,25,0.0,0.0,54,0.00,,---,0.00,522.00,VWS V14.01,2014-10-23 19:45:00,
2014-10-23 15:50:00,60.2,43.0,30.01,NNE,24,0.0,0.0,53,0.00,,---,0.00,508.00,VWS V14.01,2014-10-23 19:50:00,
2014-10-23 15:55:00,60.2,43.0,30.01,NNE,25,0.0,0.0,53,0.00,,---,0.00,490.00,VWS V14.01,2014-10-23 19:55:00,
2014-10-23 16:00:00,60.3,43.1,30.02,NNE,25,0.0,0.0,53,0.00,,---,0.00,473.00,VWS V14.01,2014-10-23 20:00:00,
2014-10-23 16:05:00,60.6,43.4,30.01,NNE,24,0.0,0.0,53,0.00,,---,0.00,462.00,VWS V14.01,2014-10-23 20:05:00,
2014-10-23 16:10:00,61.1,43.4,30.01,NNE,24,0.0,0.0,52,0.00,,---,0.00,455.00,VWS V14.01,2014-10-23 20:10:00,
2014-10-23 16:15:00,60.5,43.3,30.01,NNE,24,0.0,0.0,53,0.00,,---,0.00,441.00,VWS V14.01,2014-10-23 20:15:00,
2014-10-23 16:20:00,60.5,42.8,30.01,NNE,24,0.0,1.0,52,0.00,,---,0.00,431.00,VWS V14.01,2014-10-23 20:20:00,